| time (UTC) | temp F | wind direction | speed MPH | gust MPH | rain 1hr in | rain 24hr in | rain mn in | humidity % | barometer mb |
| 20260503223204 | 77 | 329 | 3.0 | 7.0 | 0.00 | 0.00 | 0.00 | 38 | 1016.8 |
| 20260503221704 | 77 | 260 | 4.0 | 6.0 | 0.00 | 0.00 | 0.00 | 38 | 1016.8 |
| 20260503220205 | 77 | 45 | 3.0 | 8.0 | 0.00 | 0.00 | 0.00 | 38 | 1016.9 |
| 20260503214705 | 77 | 242 | 4.0 | 7.0 | 0.00 | 0.00 | 0.00 | 40 | 1017.1 |
| 20260503211704 | 77 | 66 | 3.0 | 7.0 | 0.00 | 0.00 | 0.00 | 37 | 1017.3 |
| 20260503210205 | 77 | 262 | 5.0 | 9.0 | 0.00 | 0.00 | 0.00 | 38 | 1017.6 |
| 20260503204705 | 77 | 44 | 4.0 | 8.0 | 0.00 | 0.00 | 0.00 | 36 | 1017.9 |
| 20260503203206 | 77 | 270 | 3.0 | 9.0 | 0.00 | 0.00 | 0.00 | 37 | 1018.3 |
| 20260503201705 | 77 | 298 | 5.0 | 10.0 | 0.00 | 0.00 | 0.00 | 36 | 1018.3 |
| 20260503194705 | 77 | 83 | 5.0 | 7.0 | 0.00 | 0.00 | 0.00 | 36 | 1018.9 |
| 20260503193205 | 78 | 51 | 5.0 | 8.0 | 0.00 | 0.00 | 0.00 | 36 | 1019.0 |
| 20260503191705 | 77 | 275 | 5.0 | 8.0 | 0.00 | 0.00 | 0.00 | 37 | 1019.2 |
| 20260503190205 | 77 | 306 | 5.0 | 8.0 | 0.00 | 0.00 | 0.00 | 39 | 1019.6 |
| 20260503184704 | 77 | 31 | 6.0 | 10.0 | 0.00 | 0.00 | 0.00 | 39 | 1019.9 |
| 20260503183205 | 77 | 324 | 2.0 | 9.0 | 0.00 | 0.00 | 0.00 | 40 | 1020.1 |
| 20260503181704 | 77 | 350 | 3.0 | 9.0 | 0.00 | 0.00 | 0.00 | 38 | 1020.2 |
| 20260503180204 | 76 | 287 | 4.0 | 10.0 | 0.00 | 0.00 | 0.00 | 39 | 1020.4 |
| 20260503174704 | 77 | 267 | 3.0 | 10.0 | 0.00 | 0.00 | 0.00 | 40 | 1020.5 |
| 20260503173204 | 76 | 305 | 6.0 | 12.0 | 0.00 | 0.00 | 0.00 | 39 | 1020.5 |
| 20260503171705 | 76 | 27 | 2.0 | 8.0 | 0.00 | 0.00 | 0.00 | 39 | 1020.7 |
| 20260503170205 | 75 | 104 | 5.0 | 7.0 | 0.00 | 0.00 | 0.00 | 37 | 1020.9 |
| 20260503160205 | 74 | 8 | 6.0 | 13.0 | 0.00 | 0.00 | 0.00 | 40 | 1021.5 |
| 20260503150205 | 72 | 46 | 5.0 | 8.0 | 0.00 | 0.00 | 0.00 | 43 | 1021.8 |
| 20260503140204 | 68 | 75 | 2.0 | 5.0 | 0.00 | 0.00 | 0.00 | 61 | 1021.5 |
| 20260503130204 | 59 | 282 | 1.0 | 3.0 | 0.00 | 0.00 | 0.00 | 78 | 1020.9 |
| 20260503120204 | 47 | 4 | 1.0 | 2.0 | 0.00 | 0.00 | 0.00 | 91 | 1020.6 |
| 20260503110205 | 43 | 319 | 1.0 | 2.0 | 0.00 | 0.00 | 0.00 | 91 | 1019.9 |
| 20260503100205 | 43 | 270 | 0.0 | 2.0 | 0.00 | 0.00 | 0.00 | 90 | 1019.6 |
| 20260503090205 | 44 | 272 | 0.0 | 0.0 | 0.00 | 0.25 | 0.00 | 90 | 1019.1 |
| 20260503080205 | 45 | 68 | 0.0 | 0.0 | 0.00 | 0.41 | 0.00 | 90 | 1018.7 |
| 20260503071705 | 45 | 29 | 1.0 | 1.0 | 0.00 | 0.67 | 0.00 | 89 | 1018.5 |
| 20260503070204 | 46 | 24 | 0.0 | 0.0 | 0.00 | 0.70 | 0.00 | 89 | 1018.6 |
| 20260503054705 | 47 | 270 | 0.0 | 0.0 | 0.00 | 0.88 | 0.00 | 88 | 1018.1 |
| 20260503051704 | 48 | 112 | 0.0 | 0.0 | 0.00 | 1.09 | 0.00 | 88 | 1018.0 |
| 20260503050205 | 49 | 48 | 0.0 | 0.0 | 0.00 | 1.10 | 0.00 | 88 | 1017.9 |
| 20260503044704 | 49 | 338 | 0.0 | 1.0 | 0.00 | 1.10 | 1.10 | 88 | 1017.8 |
| 20260503043204 | 49 | 276 | 1.0 | 1.0 | 0.00 | 1.10 | 1.10 | 87 | 1017.9 |
| 20260503041704 | 49 | 292 | 0.0 | 0.0 | 0.00 | 1.10 | 1.10 | 86 | 1017.8 |
| 20260503040206 | 50 | 307 | 0.0 | 0.0 | 0.00 | 1.10 | 1.10 | 85 | 1017.7 |
| 20260503034705 | 50 | 292 | 0.0 | 0.0 | 0.00 | 1.10 | 1.10 | 85 | 1017.5 |
| 20260503033204 | 51 | 270 | 0.0 | 0.0 | 0.00 | 1.11 | 1.10 | 83 | 1017.4 |
| 20260503023204 | 54 | 270 | 0.0 | 0.0 | 0.00 | 1.37 | 1.10 | 75 | 1016.7 |
| 20260503021704 | 55 | 158 | 0.0 | 0.0 | 0.00 | 1.43 | 1.10 | 75 | 1016.6 |
| 20260503020205 | 57 | 158 | 0.0 | 0.0 | 0.00 | 1.52 | 1.10 | 72 | 1016.4 |
| 20260503014704 | 58 | 202 | 0.0 | 0.0 | 0.00 | 1.65 | 1.10 | 68 | 1016.2 |
| 20260503011704 | 62 | 267 | 1.0 | 3.0 | 0.00 | 1.75 | 1.10 | 60 | 1015.7 |
| 20260503010205 | 63 | 260 | 1.0 | 3.0 | 0.00 | 1.79 | 1.10 | 56 | 1015.5 |
| 20260503004704 | 64 | 228 | 3.0 | 7.0 | 0.00 | 1.82 | 1.10 | 54 | 1015.0 |
| 20260503003204 | 65 | 339 | 3.0 | 6.0 | 0.00 | 1.83 | 1.10 | 55 | 1014.8 |
| 20260503001705 | 66 | 316 | 3.0 | 8.0 | 0.00 | 1.87 | 1.10 | 52 | 1014.7 |
| 20260503000205 | 67 | 176 | 4.0 | 9.0 | 0.00 | 1.87 | 1.10 | 52 | 1014.3 |
| 20260502231705 | 70 | 288 | 6.0 | 9.0 | 0.00 | 1.90 | 1.10 | 49 | 1013.8 |
| 20260502230204 | 71 | 315 | 5.0 | 13.0 | 0.00 | 1.92 | 1.10 | 48 | 1013.7 |
| 20260502224705 | 71 | 276 | 5.0 | 9.0 | 0.00 | 1.96 | 1.10 | 49 | 1013.6 |